Simultaneous Nadir Overpasses (SNOs) Predictions

Prediction of SNOs between AQUA and METOP-A Satellite Orbit:

Table of predicted SNOs for the next 14.0 days since TLE Epoch: 7/31/2012
Index Date (AQUA) Time (AQUA) AQUA Lat,Lon Date (METOP-A) Time (METOP-A) METOP-A Lat,Lon Distance(km) Time Diff (sec)
1 08/02/2012 09:26:11 73.74, 32.88 08/02/2012 09:24:59 73.78, 32.88 3.57 72
2 08/02/2012 10:15:38 -73.82,-159.65 08/02/2012 10:15:40 -73.81,-159.71 1.95 2
3 08/02/2012 11:05:07 73.90, 7.82 08/02/2012 11:06:18 73.91, 7.85 1.15 71
4 08/05/2012 05:00:22 73.75, 99.32 08/05/2012 04:59:22 73.76, 99.24 2.81 60
5 08/05/2012 05:49:49 -73.82, -93.20 08/05/2012 05:50:02 -73.85, -93.22 3.09 13
6 08/05/2012 06:39:25 74.27, 73.42 08/05/2012 06:40:34 74.24, 75.06 49.58 69
7 08/08/2012 00:34:34 73.77, 165.71 08/08/2012 00:33:45 73.79, 165.71 1.77 49
8 08/08/2012 01:24:01 -73.84, -26.80 08/08/2012 01:24:26 -73.83, -26.87 2.88 25
9 08/10/2012 20:08:46 73.82,-127.94 08/10/2012 20:08:08 73.81,-127.84 3.17 38
10 08/10/2012 20:58:12 -73.83, 39.68 08/10/2012 20:58:49 -73.85, 39.58 3.61 37
11 08/13/2012 15:42:57 73.83, -61.52 08/13/2012 15:42:31 73.82, -61.40 3.65 26
12 08/13/2012 16:32:24 -73.89, 105.99 08/13/2012 16:33:12 -73.86, 106.02 3.31 48




NCC Satellite Simultaneous Nadir Overpasses (SNOs) Prediction Service
